Weather History for YBPN - February, 2014

Change the Weather History Date:

Monday, February 10, 2014

  Actual Average Record
Temperature  
Mean Temperature 80 °F -  
Max Temperature 86 °F - - ()
Min Temperature 74 °F - - ()
Cooling Degree Days 15    
Growing Degree Days 30 (Base 50)    
Moisture  
Dew Point 75 °F    
Average Humidity 86    
Maximum Humidity 100    
Minimum Humidity 56    
Precipitation  
Precipitation 0.08 in - - ()
Sea Level Pressure  
Sea Level Pressure 29.87 in    
Wind  
Wind Speed 10 mph ()    
Max Wind Speed 18 mph    
Max Gust Speed -    
Visibility 5.9 miles    
Events      
T = Trace of Precipitation, MM = Missing Value Source: Averaged Metar Reports

Daily Weather History Graph

Daily Weather History Graph

Search for Another Location

Airport or City:

Trip Planner

Search our weather history database for the weather conditions in past years. The results will help you decide how hot, cold, wet, or windy it might be!

Date:

Astronomy

Feb. 10, 2014 Rise Set
Actual Time 5:54 AM AEST 6:45 PM AEST
Civil Twilight 5:31 AM AEST 7:08 PM AEST
Nautical Twilight 5:03 AM AEST 7:35 PM AEST
Astronomical Twilight 4:36 AM AEST 8:03 PM AEST
Moon 3:12 PM AEST (2/10) 1:45 AM AEST (2/10)
Length of Visible Light 13h 37m
Length of Day
12h 51m
Waxing Gibbous, 80% of the Moon is Illuminated
Feb 10
Waxing Gibbous
Feb 15
Full
Feb 23
Last Quarter
Mar 1
New
Mar 8
First Quarter

Hourly Weather History & Observations

Time (AEST) Temp. Heat Index Dew Point Humidity Pressure Visibility Wind Dir Wind Speed Gust Speed Precip Events Conditions
12:00 AM 77 °F - 76 °F 95% 29.91 in - SSE 6.9 mph - -   Overcast
12:00 AM 77.0 °F - 75.2 °F 94% 29.89 in 6.2 mi SSE 6.9 mph - N/A   Overcast
1:00 AM 77.0 °F - 77.0 °F 100% 29.89 in 6.2 mi SE 8.1 mph - N/A   Overcast
2:03 AM 77.0 °F - 77.0 °F 100% 29.86 in 3.7 mi SE 10.4 mph - N/A   Overcast
3:00 AM 77 °F - 77 °F 99% 29.85 in 3 mi ESE 10.4 mph - -   Overcast
3:00 AM 77.0 °F - 77.0 °F 100% 29.83 in 3.7 mi ESE 10.4 mph - N/A   Overcast
4:00 AM 77.0 °F - 77.0 °F 100% 29.83 in 5.0 mi SE 12.7 mph - N/A   Overcast
5:00 AM 77.0 °F - 77.0 °F 100% 29.86 in 6.2 mi ESE 10.4 mph - N/A   Mostly Cloudy
6:00 AM 77 °F - 76 °F 96% 29.87 in - SE 10.4 mph - -  
6:00 AM 77.0 °F - 77.0 °F 100% 29.86 in 6.2 mi SE 10.4 mph - N/A   Mostly Cloudy
7:00 AM 77.0 °F - 75.2 °F 94% 29.89 in 6.2 mi ESE 11.5 mph - N/A   Overcast
8:00 AM 77.0 °F - 75.2 °F 94% 29.89 in 3.7 mi East 10.4 mph - N/A   Overcast
9:00 AM 80 °F - 78 °F 91% 29.91 in - SE 12.7 mph - -   Overcast
9:00 AM 80.6 °F 87.1 °F 77.0 °F 89% 29.92 in 6.2 mi SE 12.7 mph - N/A   Overcast
10:00 AM 82.4 °F 89.5 °F 75.2 °F 79% 29.89 in 6.2 mi ESE 18.4 mph - N/A   Overcast
11:00 AM 84.2 °F 92.3 °F 75.2 °F 74% 29.89 in 6.2 mi ESE 17.3 mph - N/A   Scattered Clouds
12:00 PM 83 °F - 76 °F 75% 29.88 in - ESE 17.3 mph - -  
12:00 PM 82.4 °F 89.5 °F 75.2 °F 79% 29.89 in 6.2 mi ESE 17.3 mph - N/A   Mostly Cloudy
1:00 PM 84.2 °F 90.9 °F 73.4 °F 70% 29.86 in 6.2 mi ESE 17.3 mph - N/A   Mostly Cloudy
2:00 PM 84.2 °F 92.3 °F 75.2 °F 74% 29.86 in 6.2 mi ESE 15.0 mph - N/A   Scattered Clouds
3:00 PM 85 °F - 72 °F 56% 29.85 in 11 mi ESE 16.1 mph - -   Haze
3:00 PM 86.0 °F 91.8 °F 71.6 °F 62% 29.83 in 6.2 mi ESE 16.1 mph - N/A   Scattered Clouds
4:00 PM 84.2 °F 90.9 °F 73.4 °F 70% 29.83 in 6.2 mi ESE 15.0 mph - N/A   Unknown
5:00 PM 82.4 °F 87.2 °F 71.6 °F 70% 29.83 in 6.2 mi East 15.0 mph - N/A   Unknown
6:00 PM 81 °F - 73 °F 70% 29.84 in - ESE 12.7 mph - -  
6:00 PM 80.6 °F 85.4 °F 73.4 °F 79% 29.83 in 6.2 mi ESE 12.7 mph - N/A   Scattered Clouds
7:00 PM 78.8 °F - 75.2 °F 89% 29.83 in 6.2 mi ESE 11.5 mph - N/A   Scattered Clouds
8:00 PM 77.0 °F - 73.4 °F 89% 29.86 in 6.2 mi ESE 9.2 mph - N/A   Scattered Clouds
9:00 PM 78 °F - 74 °F 84% 29.87 in - SE 10.4 mph - -  
9:00 PM 78.8 °F - 73.4 °F 83% 29.86 in 6.2 mi SE 10.4 mph - N/A   Scattered Clouds
10:00 PM 77.0 °F - 73.4 °F 89% 29.89 in 6.2 mi South 5.8 mph - N/A   Overcast
11:00 PM 77.0 °F - 75.2 °F 94% 29.89 in 6.2 mi SSE 9.2 mph - N/A   Overcast